Location: Asheville, NC
(35.6000°N, 82.5500°W)
Time: 10:57:57
(UTC-04:00)

Vanguard 2 - Pass Details

Date: 15 February 2018
Orbit: 552 x 2940 km, 32.9° (Epoch: 22 May)

Event Time Altitude Azimuth Distance (km) Brightness Sun altitude
Rises 16:17:44 0° 202° (SSW) 5,987 13.0 20.4°
Reaches altitude 10° 16:24:15 10° 184° (S) 4,465 12.0 19.3°
Maximum altitude 16:30:19 16° 153° (SSE) 3,456 11.0 18.2°
Drops below altitude 10° 16:35:08 10° 120° (ESE) 3,405 10.6 17.4°
Sets 16:38:59 0° 98° (E) 3,963 10.7 16.7°
